SL-8 R/B, 12792

Orbit data source: Space-Track

SL-8 R/B, 12792 is space debris in LEO originally from a launch on Fri, 28 Aug 1981 UTC launched from the Plesetsk Missile And Space Complex (PKMTR). Debris objects in space refer to the collection of defunct objects orbiting the Earth. Examples of debris include non-operational satellites, rocket bodies, and fragments generated from explosions, collisions, or faulty payload assembly.

Loading next visibility...
Identifier
12792, 1981-084B
Orbit
LEO
Country
Flag of CISCIS
Related business
Manufacturer
Omsk Av. Zav.
Mission
Spacecraft
Bus & Motor
S3, Unknown motor
Mass
1,434 kg wet, 1,434 kg dry
Launch date (UTC)
1981-08-28 (45 years ago)
Launch vehicle
Unknown
Launch site
Plesetsk Missile And Space Complex (PKMTR)
Object type
Payload
Rocket body
Debris
Shape & HBR
Unknown
Radar Cross Section
Large (>1 m²)

Expand to show TLE details & history
Last TLE update: 7 hours ago

TLE from 7 hours ago
0 SL-8 R/B
1 12792U 81084B   26130.20446838  .00000076  00000-0  33054-4 0  9991
2 12792  74.0280 170.1655 0013023  21.4582 338.7115 14.39036242341729
Epoch: 2026-05-10T04:54Z
TLE epoch observation values (Epoch: 2026-05-10T04:54:26.068Z)
Latitude
-0.00005°
Longitude
-131.45403°
Altitude
755.635 km
Speed
7.481 km/s
True Right ascension
11h 20m 39s
True Declination
0° 00' 00"
Sunlit
Object was in full shadow at epoch
Visualization orbit readout
Latitude
Unknown
Longitude
Unknown
Altitude
Unknown
Speed
Unknown
Apparent Right ascension
Unknown
Apparent Declination
Unknown
Sunlit
N/A
Visualization observer readout
Local Sidereal Time
19:48:27
Azimuth
Unknown
Elevation
Unknown
Doppler factor
Unknown
Orbital elements
Apogee altitude
768.601 km
Perigee altitude
750.011 km
Semi-major axis
7,137.443 km
Eccentricity
0.0013
Inclination
74.028°
RAAN
170.1655°
Arg. of periapsis
21.4582°
True anomaly
338.65724°
Mean anomaly
338.7115°
Eccentric anomaly
338.68438°
Mean motion
3.59939 °/min
Orbital period
100.02 mins
BSTAR
0.000033054
Loading maneuver chart data...
Computing Atmospheric mass density...
Loading historical data...
Loading historical data...
Loading historical data...
Loading historical data...
Loading historical data...
Loading historical data...
Loading historical data...
Other satellites on launch #84 in the year 1981 (1981-08-28 UTC)

Documentation

Showing up to 5 results
|